Regional Weather Roundup
Issued by NWS

Home | Current Version | Previous Version | Text Only | Print | Product List | Glossary On
Versions: 1 2 3 4 5 6 7 8 9 10 11 12 13 14 15 16 17 18 19 20 21 22 23 24 25 26 27
000
ASUS42 KFFC 230703
RWRGA
WEATHER ROUNDUP FOR GEORGIA
NATIONAL WEATHER SERVICE PEACHTREE CITY GA
300 AM EDT WED APR 23 2014

NOTE: "FAIR" INDICATES FEW OR NO CLOUDS BELOW 12,000 FEET WITH NO
SIGNIFICANT WEATHER AND/OR OBSTRUCTIONS TO VISIBILITY.

* = USE WITH CAUTION. THE STATIONS MARKED WITH AN ASTERISK MAY NOT
REPORT WEATHER SUCH AS PRECIPITATION, FOG, OR THUNDER AND ARE NOT
QUALITY CONTROLLED BY NWS.

THE REMARK "TC" DENOTES TEMPERATURE READING IN DEGREES CELSIUS.

GAZ001>058-230800-
NORTH GEORGIA

CITY           SKY/WX    TMP DP  RH WIND       PRES   REMARKS
ATLANTA        CLEAR     60  58  92 NW9       29.86F
ATHENS         CLEAR     60  58  92 W6        29.82F
CHAMBLEE       CLEAR     57  55  93 W5        29.86F FOG
PEACHTREE CITY CLEAR     54  52  93 CALM      29.88S
ROME           CLEAR     55  54  96 N5        29.88S
WEST ATLANTA   CLEAR     58  56  93 CALM      29.87S
GAINESVILLE    PTCLDY    59  58  96 W5        29.86F FOG
CARTERSVILLE   FOG       56  55  97 CALM      29.89S VSB 1/2


CITY           SKY/WX    TMP DP  RH WIND       PRES   REMARKS
DALTON*        CLEAR     54  54 100 N3        29.89S
MARIETTA       CLEAR     59  59 100 W9        29.87S
$$

GAZ059>098-102>109-230800-
CENTRAL GEORGIA

CITY           SKY/WX    TMP DP  RH WIND       PRES   REMARKS
AUGUSTA-BUSH   FOG       54  52  93 CALM      29.80S VSB 1/4
AUGUSTA-DANIEL CLEAR     63  60  90 W7        29.80F
COLUMBUS       CLEAR     60  58  92 CALM      29.87F FOG
MACON          FOG       56  56 100 W5        29.85F VSB 1/4
ROBINS AFB     FOG       59  59 100 CALM      29.85S VSB 3/4


CITY           SKY/WX    TMP DP  RH WIND       PRES   REMARKS
LAGRANGE*      FOG       54  54  99 CALM      29.88F VSB 1/4
SYLVANIA*      CLEAR     64  61  90 W5        29.82F FOG
MILLEDGEVILLE* CLEAR     59 N/A N/A CALM      29.84S HAZE
$$

GAZ099>101-110>166-230800-
SOUTH GEORGIA

CITY           SKY/WX    TMP DP  RH WIND       PRES   REMARKS
SAVANNAH       CLEAR     63  60  90 W6        29.81F
VALDOSTA       CLEAR     61  56  83 CALM      29.87F
ALMA           CLEAR     61  58  90 CALM      29.84F FOG
ST SIMONS      LGT RAIN  64  61  90 W6        29.84F
FT STEWART     CLEAR     61  61 100 W5        29.81F
ALBANY         CLEAR     63  63 100 W3        29.89F FOG
MOODY AFB      CLOUDY    63  63  99 SW2       29.86F
BRUNSWICK      CLEAR     63  61  94 W5        29.85S


CITY           SKY/WX    TMP DP  RH WIND       PRES   REMARKS
BAINBRIDGE*    MOCLDY    64  63  94 CALM      29.88F
MOULTRIE*      CLOUDY    64  64 100 CALM      29.88F
VIDALIA*       PTCLDY    61  61 100 W3        29.84S FOG
DOUGLAS*         N/A    N/A N/A N/A CALM      29.87F
$$



USA.gov is the U.S. government's official web portal to all federal, state and local government web resources and services.